Regional Weather Roundup
Issued by NWS

Home | Current Version | Previous Version | Graphics & Text | Print | Product List | Glossary On
Versions: 1 2 3 4 5 6 7 8 9 10 11 12 13 14 15 16 17 18 19 20 21 22 23 24 25 26 27 28 29 30 31 32 33 34 35 36 37 38 39 40 41 42 43 44 45 46 47 48 49 50
368
ASUS44 KMEG 102110
RWRTN
TENNESSEE HOURLY STATE WEATHER ROUNDUP
NATIONAL WEATHER SERVICE MEMPHIS TN
300 PM CST SUN DEC 10 2017

TNZ002-004-019-021-049-052-054-088>092-102200-
WEST TENNESSEE

CITY           SKY/WX    TMP DP  RH WIND       PRES   REMARKS
MEMPHIS INTL   MOSUNNY   53  28  38 SW17G25   30.17F
NWS MEMPHIS      N/A     53 N/A N/A MISG        N/A
JACKSON        SUNNY     53  23  31 SW10G25   30.15F
DYERSBURG      SUNNY     54  27  35 SW17G28   30.13S
SOMERVILLE     SUNNY     54  25  32 S13G18    30.16S
COVINGTON      SUNNY     54  25  32 SW17      30.15F
UNION CITY     SUNNY     52  25  35 SW10      30.11S
BOLIVAR        SUNNY     54  23  30 S13G18    30.15F
PARIS          SUNNY     50  23  34 SW20G26   30.10S
HUNTINGDON     SUNNY     52  23  32 SW12      30.11F
LEXINGTON      SUNNY     52  21  30 S17       30.14F
SAVANNAH       SUNNY     52  23  32 SW13G20   30.17F
$$

TNZ008-025-027-028-033-062-065-066-102200-
NORTH MIDDLE TENNESSEE

CITY           SKY/WX    TMP DP  RH WIND       PRES   REMARKS
NASHVILLE      MOSUNNY   49  17  28 SW8G22    30.14F
PORTLAND       SUNNY     46  19  34 SW13      30.09F
CLARKSVILLE    SUNNY     48  19  31 SW13G22   30.09F
SMYRNA         SUNNY     48  20  32 S10G17    30.15F
COOKEVILLE     SUNNY     43  19  39 SW14      30.14S
GALLATIN       SUNNY     48  18  29 VRB7G16   30.14F
CROSSVILLE     SUNNY     39  13  34 SW8       30.13S WCI  33
$$

TNZ061-075-076-078-094-096-097-102200-
SOUTH MIDDLE TENNESSEE

CITY           SKY/WX    TMP DP  RH WIND       PRES   REMARKS
FAYETTEVILLE   SUNNY     46  23  39 SW10G18   30.18S
TULLAHOMA      SUNNY     45  21  39 SW10      30.16F
WINCHESTER     SUNNY     45  21  39 SW10      30.19S
MCMINNVILLE    SUNNY     45  19  36 SW8G16    30.15F
COLUMBIA       SUNNY     48  19  32 SW13      30.14F
SHELBYVILLE    SUNNY     46  21  36 SW14      30.16F
$$

TNZ017-018-042-046-047-102200-
NORTHEAST TENNESSEE

CITY           SKY/WX    TMP DP  RH WIND       PRES   REMARKS
TRI CITIES     MOSUNNY   38  18  44 SW12      30.11F WCI  30
ELIZABETHTON   SUNNY     37  18  44 VRB7      30.12S WCI  32
$$

TNZ012-013-036-069-073-074-102200-
CENTRAL EAST TENNESSEE

CITY           SKY/WX    TMP DP  RH WIND       PRES   REMARKS
KNOXVILLE      SUNNY     40  24  53 SW14      30.16S WCI  32
OAK RIDGE      SUNNY     43  20  39 VRB7      30.17S
DOWNTOWN KNOXV SUNNY     43  21  42 SW10G17   30.17S
GATLINBURG     SUNNY     43  19  39 MISG      30.14F
MORRISTOWN     SUNNY     39  18  41 SW12      30.13S WCI  32
JACKSBORO      SUNNY     43  19  39 S9        30.16S
$$

TNZ083-085-099-102200-
SOUTHEAST TENNESSEE

CITY           SKY/WX    TMP DP  RH WIND       PRES   REMARKS
CHATTANOOGA    SUNNY     46  16  30 SW10      30.20S
DAYTON         CLEAR     45  23  42 S9        30.17S
$$

SKY/WX REPORTED AS FAIR MEANS FEW OR NO CLOUDS BELOW
12 THOUSAND FEET.





USA.gov is the U.S. government's official web portal to all federal, state and local government web resources and services.